sat.trackr.live / text

‹ back to catalog

AETHER-5

NORAD 67376 · 2026-004P

PAYLOAD ACTIVE UNKNOWN

§ Identity

Operator
Country
CA
Launch date
2026-01-11
Launch site
AFWTR
Launch vehicle
Mass (kg)
RCS (m²)

External: N2YO · Heavens-Above · Gunter

§ Orbital elements

Epoch: 2026-05-24T23:43:13.261152Z

Period
96.88 min
Inclination
97.8037°
Eccentricity
0.0003101
Mean motion
14.86341352 rev/d
Perigee alt
607.2 km
Apogee alt
611.5 km
Semi-major
6,987.5 km
B*
6.8121e-5
RAAN
143.9645°
Arg perigee
183.6187°
Mean anomaly
176.5006°
Rev number
1,984

§ Raw data

AETHER-51 67376U 26004P   26144.98834793  .00000547  00000+0  68121-4 0  99962 67376  97.8037 143.9645 0003101 183.6187 176.5006 14.86341352 19840

JSON: /api/v1/satellites/67376 · /tle

For live sub-satellite position, see the globe view (requires WebGL).

§ Visibility from observer

Set your observer location to see the next 7 days of passes ≥ 10°. The values pass through the URL so the page stays shareable.

No JS? Fill the form by hand. The geolocation button needs JavaScript.